Regional Weather Roundup
Issued by NWS Upton, NY

Current Version | Previous Version | Graphics & Text | Print | Product List | Glossary Off
Versions: 1 2 3 4 5 6 7 8 9 10 11 12 13 14 15 16 17 18 19 20 21 22 23 24 25 26 27 28 29 30 31 32 33 34 35 36 37 38 39 40 41 42 43 44 45 46 47 48 49 50

000
ASUS41 KOKX 071604
RWROKX

REGIONAL WEATHER ROUNDUP
NATIONAL WEATHER SERVICE NEW YORK NY
1100 AM EST SUN FEB 07 2016

NOTE: "FAIR" INDICATES FEW OR NO CLOUDS BELOW 12,000 FEET WITH NO
SIGNIFICANT WEATHER AND/OR OBSTRUCTIONS TO VISIBILITY.

NYZ071-072-176-178-NJZ106-104-071700-
NEW YORK CITY METRO AREA


CITY           SKY/WX    TMP DP  RH WIND       PRES   REMARKS
CENTRAL PARK   SUNNY     41  20  43 VRB3      30.17F
LAGUARDIA APRT MOSUNNY   43  23  45 NW5       30.15F
KENNEDY INTL   MOSUNNY   43  23  45 NW6       30.16F
NEWARK/LIBERTY MOSUNNY   43  23  45 CALM      30.16F
BRNX BOT. GARD   N/A     45  23  42 W3        30.16S
TETERBORO      SUNNY     42  22  44 CALM      30.16S
$$

NYZ177-179-078>081-071700-
LONG ISLAND NEW YORK

CITY           SKY/WX    TMP DP  RH WIND       PRES   REMARKS
FARMINGDALE    SUNNY     43  23  45 NW5       30.15F
ISLIP          MOSUNNY   41  23  48 NW8       30.13F
SHIRLEY        SUNNY     42  22  44 NW6       30.15F
RIVERHEAD        N/A     34  27  75 W1        30.21S
WESTHAMPTON    SUNNY     42  26  53 CALM      30.15F
EAST HAMPTON   SUNNY    N/A N/A N/A VRB5      30.14F
MONTAUK POINT    N/A     40  30  67 NW6       30.16F
$$

NYZ052-065-067-071700-
HUDSON VALLEY

CITY           SKY/WX    TMP DP  RH WIND       PRES   REMARKS
WHITE PLAINS   SUNNY     39  21  48 NW7       30.14S WCI  34
NEWBURGH       SUNNY     39  23  52 W8        30.15F WCI  34
MONTGOMERY     SUNNY     42  22  44 CALM      30.13F
POUGHKEEPSIE   SUNNY     41  22  46 CALM      30.16F
ALBANY         MOSUNNY   40  20  44 S6        30.15F
$$

NJZ001-105-106-008-010-013-015-019>022-104-071700-
NEW JERSEY

CITY           SKY/WX    TMP DP  RH WIND       PRES   REMARKS
NEWARK/LIBERTY MOSUNNY   43  23  45 CALM      30.16F
TETERBORO      SUNNY     42  22  44 CALM      30.16S
CALDWELL       SUNNY     39  21  48 CALM      30.17S
MORRISTOWN     MOSUNNY   37  23  56 CALM      30.17S
SOMERVILLE     SUNNY     41  23  48 N5        30.14F
SUSSEX         SUNNY     40  22  48 CALM      30.15R
ANDOVER          N/A     39  21  48 SW3       30.16R
TRENTON        SUNNY     41  23  48 NW5       30.14F
MILLVILLE      CLOUDY    42  23  46 NW5       30.16F
ATLANTIC CITY  CLOUDY    40  26  57 N7        30.15F
WRIGHTSTOWN    MOSUNNY   38  32  79 N5        30.12F WCI  34
TOMS RIVER     CLOUDY    41  23  48 NW5       30.15F
BELMAR         CLOUDY    39  21  48 NW7       30.13F WCI  34
$$

PAZ047>061-062-071-071700-
EASTERN PENNSYLVANIA

CITY           SKY/WX    TMP DP  RH WIND       PRES   REMARKS
PHILADELPHIA   PTSUNNY   42  25  50 N9        30.15F
ALLENTOWN      SUNNY     40  23  50 CALM      30.17R
SCRANTON       SUNNY     39  19  44 W5        30.11R
$$

CTZ002-004>006-009-010-012-RIZ004-006-007-MAZ004-011-015-071700-
SOUTHERN NEW ENGLAND
 IN CT

CITY           SKY/WX    TMP DP  RH WIND       PRES   REMARKS
BRADLEY INTL   MOSUNNY   34  22  61 SE3       30.17S
HARTFORD       SUNNY     39  22  50 CALM      30.17F
DANBURY        SUNNY     39  20  46 CALM      30.17R
WTRBRY/OXFORD  SUNNY     39  18  41 CALM      30.15F
BRIDGEPORT     SUNNY     40  24  53 NW5       30.17F
MERIDEN        SUNNY     39  23  52 SE3       30.17S
NEW HAVEN      SUNNY     36  23  59 NW6       30.16F WCI  31
CHESTER        FAIR      39  23  52 NE5       30.15F
GROTON         SUNNY     40  27  59 CALM      30.15F
WILLIMANTIC    SUNNY     33  25  72 CALM      30.16F

 IN RI

CITY           SKY/WX    TMP DP  RH WIND       PRES   REMARKS
PROVIDENCE     MOSUNNY   39  24  55 NE5       30.16F
BLOCK ISLAND   SUNNY     43  28  56 NW5       30.15F
WESTERLY       SUNNY     42  25  50 CALM      30.16F

 IN MA

CITY           SKY/WX    TMP DP  RH WIND       PRES   REMARKS
BOSTON         MOSUNNY   36  25  64 W3        30.16F
WORCESTER      SUNNY     38  18  44 NW6       30.12F WCI  33
WESTFIELD      SUNNY     36  22  56 NW5       30.15F WCI  32
PROVINCETOWN   SUNNY     39  28  64 W6        30.16F WCI  35
NANTUCKET      SUNNY     42  30  62 SW5       30.13F
$$

ANZ330-335-338-340-345-350-353-355-071700-
COASTAL MARINE OBSERVATIONS


STATION/POSITION TIME  SKY/WX   TEMP    WIND        PRES    VSBY  WAVE
                                AIR SEA DIR/SP/G                  HT/PER
                 (UTC)          (F)     (DEG/KT/KT) (MB)    (MI)  (FT/S)
NY HARB ENTRANCE 1450            39 43  300/  6/  8 1021.6          2/11
4S FIRE IS       NOT AVBL
20S FIRE ISLAND  1450            40 43  320/  2/  4 1021.8          2/10
GREAT SOUTH BAY  NOT AVBL
23SW MTP         1550            40 45  280/  6/  8 1020.6          2/10
HUDSON CANYON    1450            44 50              1020.3          2/10
KINGS POINT      1500            38 39     CALM     1021.4
EXECUTION ROCKS  NOT AVBL
CENTRAL LI SOUND 1530            37     300/  6/  8   N/A           1
EASTERN LI SOUND 1500            46 42  290/  4/  6   N/A
ROBBINS REEF     1500            36     290/  5/  6 1021.2
$$


>>>>>>>>>>>>>>>>>>>>>>>>>>>> KEY <<<<<<<<<<<<<<<<<<<<<<<<<<<
>                                                          <
>     SKY/WX - SKY CONDITION/PRESENT WEATHER               <
>     TMP    - TEMPERATURE IN FAHRENHEIT                   <
>     DP     - DEWPOINT IN FAHRENHEIT                      <
>     RH     - RELATIVE HUMIDITY IN PERCENT                <
>     WIND   - DIRECTION AND SPEED IN MPH                  <
>     PRES   - MEAN SEA LEVEL PRESSURE IN INCHES OF HG     <
>     WCI    - WIND CHILL INDEX                            <
>     VSB    - VISIBILITY IN MILES                         <
>     HX     - HEAT INDEX                                  <
>     TC     - TEMPERATURE IN CELSIUS                      <
>     VRB    - VARIABLE WIND DIRECTION                     <
>                                                          <
>>>>>>>>>>>>>>>>>>>>>>>>>>>> KEY <<<<<<<<<<<<<<<<<<<<<<<<<<<





USA.gov is the U.S. government's official web portal to all federal, state and local government web resources and services.